Date_Time,Julian_Date,Latitude,Longitude,Instrument_Depth,U,V,Speed,Direction
(yyyy-mm-dd hh:mn:ss UTC),(JD),(+ deg. North),(+ deg. East),(m),(cm/s),(cm/s),(cm/s),(deg True)
1983-02-19 18:00:00 UTC,2445385.250000,28.7317,-95.2428,0109,-11.68,-5.70,13.0000,244.0000
1983-02-19 18:30:00 UTC,2445385.270833,28.7317,-95.2428,0109,-12.29,-8.60,15.0000,235.0000
1983-02-19 19:00:00 UTC,2445385.291667,28.7317,-95.2428,0109,-12.61,-9.85,16.0000,232.0000
1983-02-19 19:30:00 UTC,2445385.312500,28.7317,-95.2428,0109,-13.40,-10.47,17.0000,232.0000
1983-02-19 20:00:00 UTC,2445385.333333,28.7317,-95.2428,0109,-13.58,-10.23,17.0000,233.0000
1983-02-19 20:30:00 UTC,2445385.354167,28.7317,-95.2428,0109,-13.11,-9.18,16.0000,235.0000
1983-02-19 21:00:00 UTC,2445385.375000,28.7317,-95.2428,0109,-12.58,-8.17,15.0000,237.0000
1983-02-19 21:30:00 UTC,2445385.395833,28.7317,-95.2428,0109,-12.99,-7.50,15.0000,240.0000
1983-02-19 22:00:00 UTC,2445385.416667,28.7317,-95.2428,0109,-13.37,-6.81,15.0000,243.0000
1983-02-19 22:30:00 UTC,2445385.437500,28.7317,-95.2428,0109,-13.37,-6.81,15.0000,243.0000
1983-02-19 23:00:00 UTC,2445385.458333,28.7317,-95.2428,0109,-13.24,-7.04,15.0000,242.0000
1983-02-19 23:30:00 UTC,2445385.479167,28.7317,-95.2428,0109,-13.86,-8.00,16.0000,240.0000
1983-02-20 00:00:00 UTC,2445385.500000,28.7317,-95.2428,0109,-13.71,-8.24,16.0000,239.0000
1983-02-20 00:30:00 UTC,2445385.520833,28.7317,-95.2428,0109,-15.26,-9.54,18.0000,238.0000
1983-02-20 01:00:00 UTC,2445385.541667,28.7317,-95.2428,0109,-15.75,-10.62,19.0000,236.0000
1983-02-20 01:30:00 UTC,2445385.562500,28.7317,-95.2428,0109,-15.37,-11.17,19.0000,234.0000
1983-02-20 02:00:00 UTC,2445385.583333,28.7317,-95.2428,0109,-16.38,-11.47,20.0000,235.0000
1983-02-20 02:30:00 UTC,2445385.604167,28.7317,-95.2428,0109,-17.14,-10.30,20.0000,239.0000
1983-02-20 03:00:00 UTC,2445385.625000,28.7317,-95.2428,0109,-18.19,-10.50,21.0000,240.0000
1983-02-20 03:30:00 UTC,2445385.645833,28.7317,-95.2428,0109,-19.42,-10.33,22.0000,242.0000
1983-02-20 04:00:00 UTC,2445385.666667,28.7317,-95.2428,0109,-21.01,-9.35,23.0000,246.0000
1983-02-20 04:30:00 UTC,2445385.687500,28.7317,-95.2428,0109,-22.09,-9.38,24.0000,247.0000
1983-02-20 05:00:00 UTC,2445385.708333,28.7317,-95.2428,0109,-22.09,-9.38,24.0000,247.0000
1983-02-20 05:30:00 UTC,2445385.729167,28.7317,-95.2428,0109,-23.18,-9.37,25.0000,248.0000
1983-02-20 06:00:00 UTC,2445385.750000,28.7317,-95.2428,0109,-23.01,-9.77,25.0000,247.0000
1983-02-20 06:30:00 UTC,2445385.770833,28.7317,-95.2428,0109,-22.66,-10.57,25.0000,245.0000
1983-02-20 07:00:00 UTC,2445385.791667,28.7317,-95.2428,0109,-22.74,-12.61,26.0000,241.0000
1983-02-20 07:30:00 UTC,2445385.812500,28.7317,-95.2428,0109,-23.38,-13.50,27.0000,240.0000
1983-02-20 08:00:00 UTC,2445385.833333,28.7317,-95.2428,0109,-23.17,-11.80,26.0000,243.0000
1983-02-20 08:30:00 UTC,2445385.854167,28.7317,-95.2428,0109,-23.75,-10.58,26.0000,246.0000
1983-02-20 09:00:00 UTC,2445385.875000,28.7317,-95.2428,0109,-24.11,-9.74,26.0000,248.0000
1983-02-20 09:30:00 UTC,2445385.895833,28.7317,-95.2428,0109,-23.01,-9.77,25.0000,247.0000
1983-02-20 10:00:00 UTC,2445385.916667,28.7317,-95.2428,0109,-21.93,-9.76,24.0000,246.0000
1983-02-20 10:30:00 UTC,2445385.937500,28.7317,-95.2428,0109,-21.17,-8.99,23.0000,247.0000
1983-02-20 11:00:00 UTC,2445385.958333,28.7317,-95.2428,0109,-21.17,-8.99,23.0000,247.0000
1983-02-20 11:30:00 UTC,2445385.979167,28.7317,-95.2428,0109,-19.03,-8.88,21.0000,245.0000
1983-02-20 12:00:00 UTC,2445386.000000,28.7317,-95.2428,0109,-16.62,-9.21,19.0000,241.0000
1983-02-20 12:30:00 UTC,2445386.020833,28.7317,-95.2428,0109,-15.59,-9.00,18.0000,240.0000
1983-02-20 13:00:00 UTC,2445386.041667,28.7317,-95.2428,0109,-15.89,-8.45,18.0000,242.0000
1983-02-20 13:30:00 UTC,2445386.062500,28.7317,-95.2428,0109,-17.22,-8.03,19.0000,245.0000
1983-02-20 14:00:00 UTC,2445386.083333,28.7317,-95.2428,0109,-18.13,-8.45,20.0000,245.0000
1983-02-20 14:30:00 UTC,2445386.104167,28.7317,-95.2428,0109,-17.98,-8.77,20.0000,244.0000
1983-02-20 15:00:00 UTC,2445386.125000,28.7317,-95.2428,0109,-16.78,-8.92,19.0000,242.0000
1983-02-20 15:30:00 UTC,2445386.145833,28.7317,-95.2428,0109,-15.59,-9.00,18.0000,240.0000
1983-02-20 16:00:00 UTC,2445386.166667,28.7317,-95.2428,0109,-15.01,-7.98,17.0000,242.0000
1983-02-20 16:30:00 UTC,2445386.187500,28.7317,-95.2428,0109,-15.01,-7.98,17.0000,242.0000
1983-02-20 17:00:00 UTC,2445386.208333,28.7317,-95.2428,0109,-14.72,-8.50,17.0000,240.0000
1983-02-20 17:30:00 UTC,2445386.229167,28.7317,-95.2428,0109,-14.92,-10.07,18.0000,236.0000
1983-02-20 18:00:00 UTC,2445386.250000,28.7317,-95.2428,0109,-16.18,-11.76,20.0000,234.0000
1983-02-20 18:30:00 UTC,2445386.270833,28.7317,-95.2428,0109,-18.24,-12.30,22.0000,236.0000
1983-02-20 19:00:00 UTC,2445386.291667,28.7317,-95.2428,0109,-20.57,-12.36,24.0000,239.0000
1983-02-20 19:30:00 UTC,2445386.312500,28.7317,-95.2428,0109,-21.87,-12.12,25.0000,241.0000
1983-02-20 20:00:00 UTC,2445386.333333,28.7317,-95.2428,0109,-23.17,-11.80,26.0000,243.0000
1983-02-20 20:30:00 UTC,2445386.354167,28.7317,-95.2428,0109,-23.75,-10.58,26.0000,246.0000
1983-02-20 21:00:00 UTC,2445386.375000,28.7317,-95.2428,0109,-24.43,-8.89,26.0000,250.0000
1983-02-20 21:30:00 UTC,2445386.395833,28.7317,-95.2428,0109,-24.86,-7.60,26.0000,253.0000
1983-02-20 22:00:00 UTC,2445386.416667,28.7317,-95.2428,0109,-24.99,-7.17,26.0000,254.0000
1983-02-20 22:30:00 UTC,2445386.437500,28.7317,-95.2428,0109,-21.99,-6.72,23.0000,253.0000
1983-02-20 23:00:00 UTC,2445386.458333,28.7317,-95.2428,0109,-21.15,-6.06,22.0000,254.0000
1983-02-20 23:30:00 UTC,2445386.479167,28.7317,-95.2428,0109,-21.61,-7.87,23.0000,250.0000
1983-02-21 00:00:00 UTC,2445386.500000,28.7317,-95.2428,0109,-20.13,-13.07,24.0000,237.0000
1983-02-21 00:30:00 UTC,2445386.520833,28.7317,-95.2428,0109,-15.56,-15.56,22.0000,225.0000
1983-02-21 01:00:00 UTC,2445386.541667,28.7317,-95.2428,0109,-14.32,-15.36,21.0000,223.0000
1983-02-21 01:30:00 UTC,2445386.562500,28.7317,-95.2428,0109,-18.12,-14.16,23.0000,232.0000
1983-02-21 02:00:00 UTC,2445386.583333,28.7317,-95.2428,0109,-22.07,-11.74,25.0000,242.0000
1983-02-21 02:30:00 UTC,2445386.604167,28.7317,-95.2428,0109,-21.87,-12.12,25.0000,241.0000
1983-02-21 03:00:00 UTC,2445386.625000,28.7317,-95.2428,0109,-19.32,-17.40,26.0000,228.0000
1983-02-21 03:30:00 UTC,2445386.645833,28.7317,-95.2428,0109,-18.00,-21.45,28.0000,220.0000
1983-02-21 04:00:00 UTC,2445386.666667,28.7317,-95.2428,0109,-19.40,-21.55,29.0000,222.0000
1983-02-21 04:30:00 UTC,2445386.687500,28.7317,-95.2428,0109,-23.40,-20.34,31.0000,229.0000
1983-02-21 05:00:00 UTC,2445386.708333,28.7317,-95.2428,0109,-28.51,-18.52,34.0000,237.0000
1983-02-21 05:30:00 UTC,2445386.729167,28.7317,-95.2428,0109,-28.83,-18.02,34.0000,238.0000
1983-02-21 06:00:00 UTC,2445386.750000,28.7317,-95.2428,0109,-27.99,-17.49,33.0000,238.0000
1983-02-21 06:30:00 UTC,2445386.770833,28.7317,-95.2428,0109,-28.83,-18.02,34.0000,238.0000
1983-02-21 07:00:00 UTC,2445386.791667,28.7317,-95.2428,0109,-29.74,-16.48,34.0000,241.0000
1983-02-21 07:30:00 UTC,2445386.812500,28.7317,-95.2428,0109,-30.56,-14.90,34.0000,244.0000
1983-02-21 08:00:00 UTC,2445386.833333,28.7317,-95.2428,0109,-30.29,-15.44,34.0000,243.0000
1983-02-21 08:30:00 UTC,2445386.854167,28.7317,-95.2428,0109,-28.58,-16.50,33.0000,240.0000
1983-02-21 09:00:00 UTC,2445386.875000,28.7317,-95.2428,0109,-26.57,-15.97,31.0000,239.0000
1983-02-21 09:30:00 UTC,2445386.895833,28.7317,-95.2428,0109,-25.44,-15.90,30.0000,238.0000
1983-02-21 10:00:00 UTC,2445386.916667,28.7317,-95.2428,0109,-25.16,-16.34,30.0000,237.0000
1983-02-21 10:30:00 UTC,2445386.937500,28.7317,-95.2428,0109,-24.76,-18.66,31.0000,233.0000
1983-02-21 11:00:00 UTC,2445386.958333,28.7317,-95.2428,0109,-24.51,-20.57,32.0000,230.0000
1983-02-21 11:30:00 UTC,2445386.979167,28.7317,-95.2428,0109,-25.56,-19.26,32.0000,233.0000
1983-02-21 12:00:00 UTC,2445387.000000,28.7317,-95.2428,0109,-27.68,-17.97,33.0000,237.0000
1983-02-21 12:30:00 UTC,2445387.020833,28.7317,-95.2428,0109,-29.14,-15.49,33.0000,242.0000
1983-02-21 13:00:00 UTC,2445387.041667,28.7317,-95.2428,0109,-29.23,-13.02,32.0000,246.0000
1983-02-21 13:30:00 UTC,2445387.062500,28.7317,-95.2428,0109,-27.37,-14.55,31.0000,242.0000
1983-02-21 14:00:00 UTC,2445387.083333,28.7317,-95.2428,0109,-23.96,-18.05,30.0000,233.0000
1983-02-21 14:30:00 UTC,2445387.104167,28.7317,-95.2428,0109,-22.67,-21.14,31.0000,227.0000
1983-02-21 15:00:00 UTC,2445387.125000,28.7317,-95.2428,0109,-22.92,-23.74,33.0000,224.0000
1983-02-21 15:30:00 UTC,2445387.145833,28.7317,-95.2428,0109,-23.19,-24.87,34.0000,223.0000
1983-02-21 16:00:00 UTC,2445387.166667,28.7317,-95.2428,0109,-24.04,-24.04,34.0000,225.0000
1983-02-21 16:30:00 UTC,2445387.187500,28.7317,-95.2428,0109,-23.40,-21.82,32.0000,227.0000
1983-02-21 17:00:00 UTC,2445387.208333,28.7317,-95.2428,0109,-22.64,-19.68,30.0000,229.0000
1983-02-21 17:30:00 UTC,2445387.229167,28.7317,-95.2428,0109,-21.56,-16.25,27.0000,233.0000
1983-02-21 18:00:00 UTC,2445387.250000,28.7317,-95.2428,0109,-20.97,-13.62,25.0000,237.0000
1983-02-21 18:30:00 UTC,2445387.270833,28.7317,-95.2428,0109,-20.97,-13.62,25.0000,237.0000
1983-02-21 19:00:00 UTC,2445387.291667,28.7317,-95.2428,0109,-20.35,-12.72,24.0000,238.0000
1983-02-21 19:30:00 UTC,2445387.312500,28.7317,-95.2428,0109,-19.92,-11.50,23.0000,240.0000
1983-02-21 20:00:00 UTC,2445387.333333,28.7317,-95.2428,0109,-19.92,-11.50,23.0000,240.0000
1983-02-21 20:30:00 UTC,2445387.354167,28.7317,-95.2428,0109,-20.97,-13.62,25.0000,237.0000
1983-02-21 21:00:00 UTC,2445387.375000,28.7317,-95.2428,0109,-23.76,-16.63,29.0000,235.0000
1983-02-21 21:30:00 UTC,2445387.395833,28.7317,-95.2428,0109,-26.84,-17.43,32.0000,237.0000
1983-02-21 22:00:00 UTC,2445387.416667,28.7317,-95.2428,0109,-29.40,-14.98,33.0000,243.0000
1983-02-21 22:30:00 UTC,2445387.437500,28.7317,-95.2428,0109,-29.67,-11.99,32.0000,248.0000
1983-02-21 23:00:00 UTC,2445387.458333,28.7317,-95.2428,0109,-28.19,-10.26,30.0000,250.0000
1983-02-21 23:30:00 UTC,2445387.479167,28.7317,-95.2428,0109,-26.14,-10.03,28.0000,249.0000
1983-02-22 00:00:00 UTC,2445387.500000,28.7317,-95.2428,0109,-24.11,-9.74,26.0000,248.0000
1983-02-22 00:30:00 UTC,2445387.520833,28.7317,-95.2428,0109,-23.18,-6.21,24.0000,255.0000
1983-02-22 01:00:00 UTC,2445387.541667,28.7317,-95.2428,0109,-22.97,-1.20,23.0000,267.0000
1983-02-22 01:30:00 UTC,2445387.562500,28.7317,-95.2428,0109,-21.95,1.53,22.0000,274.0000
1983-02-22 02:00:00 UTC,2445387.583333,28.7317,-95.2428,0109,-21.95,1.53,22.0000,274.0000
1983-02-22 02:30:00 UTC,2445387.604167,28.7317,-95.2428,0109,-20.95,1.46,21.0000,274.0000
1983-02-22 03:00:00 UTC,2445387.625000,28.7317,-95.2428,0109,-18.93,1.66,19.0000,275.0000
1983-02-22 03:30:00 UTC,2445387.645833,28.7317,-95.2428,0109,-16.83,2.37,17.0000,278.0000
1983-02-22 04:00:00 UTC,2445387.666667,28.7317,-95.2428,0109,-14.00,5.38,15.0000,291.0000
1983-02-22 04:30:00 UTC,2445387.687500,28.7317,-95.2428,0109,-11.98,9.03,15.0000,307.0000
1983-02-22 05:00:00 UTC,2445387.708333,28.7317,-95.2428,0109,-10.79,10.42,15.0000,314.0000
1983-02-22 05:30:00 UTC,2445387.729167,28.7317,-95.2428,0109,-9.03,9.35,13.0000,316.0000
1983-02-22 06:00:00 UTC,2445387.750000,28.7317,-95.2428,0109,-5.74,8.19,10.0000,325.0000
1983-02-22 06:30:00 UTC,2445387.770833,28.7317,-95.2428,0109,-0.97,6.93,7.0000,352.0000
1983-02-22 07:00:00 UTC,2445387.791667,28.7317,-95.2428,0109,3.29,6.18,7.0000,28.0000
1983-02-22 07:30:00 UTC,2445387.812500,28.7317,-95.2428,0109,4.50,5.36,7.0000,40.0000
1983-02-22 08:00:00 UTC,2445387.833333,28.7317,-95.2428,0109,3.78,4.66,6.0000,39.0000
1983-02-22 08:30:00 UTC,2445387.854167,28.7317,-95.2428,0109,3.99,3.01,5.0000,53.0000
1983-02-22 09:00:00 UTC,2445387.875000,28.7317,-95.2428,0109,4.95,0.70,5.0000,82.0000
1983-02-22 09:30:00 UTC,2445387.895833,28.7317,-95.2428,0109,4.98,-0.44,5.0000,95.0000
1983-02-22 10:00:00 UTC,2445387.916667,28.7317,-95.2428,0109,5.99,-0.31,6.0000,93.0000
1983-02-22 10:30:00 UTC,2445387.937500,28.7317,-95.2428,0109,5.82,-1.45,6.0000,104.0000
1983-02-22 11:00:00 UTC,2445387.958333,28.7317,-95.2428,0109,3.95,-0.63,4.0000,99.0000
1983-02-22 11:30:00 UTC,2445387.979167,28.7317,-95.2428,0109,4.53,2.11,5.0000,65.0000
1983-02-22 12:00:00 UTC,2445388.000000,28.7317,-95.2428,0109,5.25,2.91,6.0000,61.0000
1983-02-22 12:30:00 UTC,2445388.020833,28.7317,-95.2428,0109,5.39,2.63,6.0000,64.0000
1983-02-22 13:00:00 UTC,2445388.041667,28.7317,-95.2428,0109,6.55,4.59,8.0000,55.0000
1983-02-22 13:30:00 UTC,2445388.062500,28.7317,-95.2428,0109,7.36,8.17,11.0000,42.0000
1983-02-22 14:00:00 UTC,2445388.083333,28.7317,-95.2428,0109,8.62,11.03,14.0000,38.0000
1983-02-22 14:30:00 UTC,2445388.104167,28.7317,-95.2428,0109,10.04,11.15,15.0000,42.0000
1983-02-22 15:00:00 UTC,2445388.125000,28.7317,-95.2428,0109,10.23,10.97,15.0000,43.0000
1983-02-22 15:30:00 UTC,2445388.145833,28.7317,-95.2428,0109,10.93,13.02,17.0000,40.0000
1983-02-22 16:00:00 UTC,2445388.166667,28.7317,-95.2428,0109,11.33,13.99,18.0000,39.0000
1983-02-22 16:30:00 UTC,2445388.187500,28.7317,-95.2428,0109,12.59,15.54,20.0000,39.0000
1983-02-22 17:00:00 UTC,2445388.208333,28.7317,-95.2428,0109,12.86,15.32,20.0000,40.0000
1983-02-22 17:30:00 UTC,2445388.229167,28.7317,-95.2428,0109,11.33,13.99,18.0000,39.0000
1983-02-22 18:00:00 UTC,2445388.250000,28.7317,-95.2428,0109,10.83,14.38,18.0000,37.0000
1983-02-22 18:30:00 UTC,2445388.270833,28.7317,-95.2428,0109,10.62,15.75,19.0000,34.0000
1983-02-22 19:00:00 UTC,2445388.291667,28.7317,-95.2428,0109,10.35,15.93,19.0000,33.0000
1983-02-22 19:30:00 UTC,2445388.312500,28.7317,-95.2428,0109,11.43,15.17,19.0000,37.0000
1983-02-22 20:00:00 UTC,2445388.333333,28.7317,-95.2428,0109,12.96,13.90,19.0000,43.0000
1983-02-22 20:30:00 UTC,2445388.354167,28.7317,-95.2428,0109,13.90,12.96,19.0000,47.0000
1983-02-22 21:00:00 UTC,2445388.375000,28.7317,-95.2428,0109,14.14,14.14,20.0000,45.0000
1983-02-22 21:30:00 UTC,2445388.395833,28.7317,-95.2428,0109,15.09,17.36,23.0000,41.0000
1983-02-22 22:00:00 UTC,2445388.416667,28.7317,-95.2428,0109,17.24,22.06,28.0000,38.0000
1983-02-22 22:30:00 UTC,2445388.437500,28.7317,-95.2428,0109,18.35,26.21,32.0000,35.0000
1983-02-22 23:00:00 UTC,2445388.458333,28.7317,-95.2428,0109,19.57,29.02,35.0000,34.0000
1983-02-22 23:30:00 UTC,2445388.479167,28.7317,-95.2428,0109,21.75,29.93,37.0000,36.0000
1983-02-23 00:00:00 UTC,2445388.500000,28.7317,-95.2428,0109,24.63,31.52,40.0000,38.0000
1983-02-23 00:30:00 UTC,2445388.520833,28.7317,-95.2428,0109,25.86,33.10,42.0000,38.0000
1983-02-23 01:00:00 UTC,2445388.541667,28.7317,-95.2428,0109,27.06,33.42,43.0000,39.0000
1983-02-23 01:30:00 UTC,2445388.562500,28.7317,-95.2428,0109,28.28,33.71,44.0000,40.0000
1983-02-23 02:00:00 UTC,2445388.583333,28.7317,-95.2428,0109,28.21,32.45,43.0000,41.0000
1983-02-23 02:30:00 UTC,2445388.604167,28.7317,-95.2428,0109,26.90,30.94,41.0000,41.0000
1983-02-23 03:00:00 UTC,2445388.625000,28.7317,-95.2428,0109,26.77,29.73,40.0000,42.0000
1983-02-23 03:30:00 UTC,2445388.645833,28.7317,-95.2428,0109,28.28,28.28,40.0000,45.0000
1983-02-23 04:00:00 UTC,2445388.666667,28.7317,-95.2428,0109,30.19,26.24,40.0000,49.0000
1983-02-23 04:30:00 UTC,2445388.687500,28.7317,-95.2428,0109,30.73,24.01,39.0000,52.0000
1983-02-23 05:00:00 UTC,2445388.708333,28.7317,-95.2428,0109,31.50,21.25,38.0000,56.0000
1983-02-23 05:30:00 UTC,2445388.729167,28.7317,-95.2428,0109,32.91,19.00,38.0000,60.0000
1983-02-23 06:00:00 UTC,2445388.750000,28.7317,-95.2428,0109,33.24,18.42,38.0000,61.0000
1983-02-23 06:30:00 UTC,2445388.770833,28.7317,-95.2428,0109,31.18,18.00,36.0000,60.0000
1983-02-23 07:00:00 UTC,2445388.791667,28.7317,-95.2428,0109,30.29,15.44,34.0000,63.0000
1983-02-23 07:30:00 UTC,2445388.812500,28.7317,-95.2428,0109,29.87,11.47,32.0000,69.0000
1983-02-23 08:00:00 UTC,2445388.833333,28.7317,-95.2428,0109,28.37,6.03,29.0000,78.0000
1983-02-23 08:30:00 UTC,2445388.854167,28.7317,-95.2428,0109,25.90,2.27,26.0000,85.0000
1983-02-23 09:00:00 UTC,2445388.875000,28.7317,-95.2428,0109,24.94,1.74,25.0000,86.0000
1983-02-23 09:30:00 UTC,2445388.895833,28.7317,-95.2428,0109,22.91,2.00,23.0000,85.0000
1983-02-23 10:00:00 UTC,2445388.916667,28.7317,-95.2428,0109,20.92,1.83,21.0000,85.0000
1983-02-23 10:30:00 UTC,2445388.937500,28.7317,-95.2428,0109,18.95,1.33,19.0000,86.0000
1983-02-23 11:00:00 UTC,2445388.958333,28.7317,-95.2428,0109,16.87,2.07,17.0000,83.0000
1983-02-23 11:30:00 UTC,2445388.979167,28.7317,-95.2428,0109,13.46,3.86,14.0000,74.0000
1983-02-23 12:00:00 UTC,2445389.000000,28.7317,-95.2428,0109,11.26,6.50,13.0000,60.0000
1983-02-23 12:30:00 UTC,2445389.020833,28.7317,-95.2428,0109,8.63,8.34,12.0000,46.0000
1983-02-23 13:00:00 UTC,2445389.041667,28.7317,-95.2428,0109,7.64,10.52,13.0000,36.0000
1983-02-23 13:30:00 UTC,2445389.062500,28.7317,-95.2428,0109,7.50,12.99,15.0000,30.0000
1983-02-23 14:00:00 UTC,2445389.083333,28.7317,-95.2428,0109,5.99,14.83,16.0000,22.0000
1983-02-23 14:30:00 UTC,2445389.104167,28.7317,-95.2428,0109,5.86,17.02,18.0000,19.0000
1983-02-23 15:00:00 UTC,2445389.125000,28.7317,-95.2428,0109,7.42,17.49,19.0000,23.0000
1983-02-23 15:30:00 UTC,2445389.145833,28.7317,-95.2428,0109,9.70,17.49,20.0000,29.0000
1983-02-23 16:00:00 UTC,2445389.166667,28.7317,-95.2428,0109,9.21,16.62,19.0000,29.0000
1983-02-23 16:30:00 UTC,2445389.187500,28.7317,-95.2428,0109,9.21,16.62,19.0000,29.0000
1983-02-23 17:00:00 UTC,2445389.208333,28.7317,-95.2428,0109,9.21,16.62,19.0000,29.0000
1983-02-23 17:30:00 UTC,2445389.229167,28.7317,-95.2428,0109,8.92,16.78,19.0000,28.0000
1983-02-23 18:00:00 UTC,2445389.250000,28.7317,-95.2428,0109,9.08,17.82,20.0000,27.0000
1983-02-23 18:30:00 UTC,2445389.270833,28.7317,-95.2428,0109,9.39,17.66,20.0000,28.0000
1983-02-23 19:00:00 UTC,2445389.291667,28.7317,-95.2428,0109,10.30,17.14,20.0000,31.0000
1983-02-23 19:30:00 UTC,2445389.312500,28.7317,-95.2428,0109,10.62,15.75,19.0000,34.0000
1983-02-23 20:00:00 UTC,2445389.333333,28.7317,-95.2428,0109,10.83,14.38,18.0000,37.0000
1983-02-23 20:30:00 UTC,2445389.354167,28.7317,-95.2428,0109,10.70,13.21,17.0000,39.0000
1983-02-23 21:00:00 UTC,2445389.375000,28.7317,-95.2428,0109,10.28,12.26,16.0000,40.0000
1983-02-23 21:30:00 UTC,2445389.395833,28.7317,-95.2428,0109,10.91,11.70,16.0000,43.0000
1983-02-23 22:00:00 UTC,2445389.416667,28.7317,-95.2428,0109,10.61,10.61,15.0000,45.0000
1983-02-23 22:30:00 UTC,2445389.437500,28.7317,-95.2428,0109,10.97,10.23,15.0000,47.0000
1983-02-23 23:00:00 UTC,2445389.458333,28.7317,-95.2428,0109,11.32,9.84,15.0000,49.0000
1983-02-23 23:30:00 UTC,2445389.479167,28.7317,-95.2428,0109,11.49,9.64,15.0000,50.0000
1983-02-24 00:00:00 UTC,2445389.500000,28.7317,-95.2428,0109,11.32,9.84,15.0000,49.0000
1983-02-24 00:30:00 UTC,2445389.520833,28.7317,-95.2428,0109,12.08,10.50,16.0000,49.0000
1983-02-24 01:00:00 UTC,2445389.541667,28.7317,-95.2428,0109,11.89,10.71,16.0000,48.0000
1983-02-24 01:30:00 UTC,2445389.562500,28.7317,-95.2428,0109,12.23,11.81,17.0000,46.0000
1983-02-24 02:00:00 UTC,2445389.583333,28.7317,-95.2428,0109,11.11,11.51,16.0000,44.0000
1983-02-24 02:30:00 UTC,2445389.604167,28.7317,-95.2428,0109,10.91,11.70,16.0000,43.0000
1983-02-24 03:00:00 UTC,2445389.625000,28.7317,-95.2428,0109,11.59,12.43,17.0000,43.0000
1983-02-24 03:30:00 UTC,2445389.645833,28.7317,-95.2428,0109,12.28,13.16,18.0000,43.0000
1983-02-24 04:00:00 UTC,2445389.666667,28.7317,-95.2428,0109,12.95,12.50,18.0000,46.0000
1983-02-24 04:30:00 UTC,2445389.687500,28.7317,-95.2428,0109,14.12,12.71,19.0000,48.0000
1983-02-24 05:00:00 UTC,2445389.708333,28.7317,-95.2428,0109,13.90,12.96,19.0000,47.0000
1983-02-24 05:30:00 UTC,2445389.729167,28.7317,-95.2428,0109,13.90,12.96,19.0000,47.0000
1983-02-24 06:00:00 UTC,2445389.750000,28.7317,-95.2428,0109,13.16,12.28,18.0000,47.0000
1983-02-24 06:30:00 UTC,2445389.770833,28.7317,-95.2428,0109,12.08,10.50,16.0000,49.0000
1983-02-24 07:00:00 UTC,2445389.791667,28.7317,-95.2428,0109,11.66,9.44,15.0000,51.0000
1983-02-24 07:30:00 UTC,2445389.812500,28.7317,-95.2428,0109,11.47,8.03,14.0000,55.0000
1983-02-24 08:00:00 UTC,2445389.833333,28.7317,-95.2428,0109,11.02,6.89,13.0000,58.0000
1983-02-24 08:30:00 UTC,2445389.854167,28.7317,-95.2428,0109,10.60,5.63,12.0000,62.0000
1983-02-24 09:00:00 UTC,2445389.875000,28.7317,-95.2428,0109,10.13,4.30,11.0000,67.0000
1983-02-24 09:30:00 UTC,2445389.895833,28.7317,-95.2428,0109,8.51,2.93,9.0000,71.0000
1983-02-24 10:00:00 UTC,2445389.916667,28.7317,-95.2428,0109,7.56,2.60,8.0000,71.0000
1983-02-24 10:30:00 UTC,2445389.937500,28.7317,-95.2428,0109,7.47,2.87,8.0000,69.0000
1983-02-24 11:00:00 UTC,2445389.958333,28.7317,-95.2428,0109,6.58,2.39,7.0000,70.0000
1983-02-24 11:30:00 UTC,2445389.979167,28.7317,-95.2428,0109,6.44,2.74,7.0000,67.0000
1983-02-24 12:00:00 UTC,2445390.000000,28.7317,-95.2428,0109,5.87,3.81,7.0000,57.0000
1983-02-24 12:30:00 UTC,2445390.020833,28.7317,-95.2428,0109,5.85,5.46,8.0000,47.0000
1983-02-24 13:00:00 UTC,2445390.041667,28.7317,-95.2428,0109,6.43,7.66,10.0000,40.0000
1983-02-24 13:30:00 UTC,2445390.062500,28.7317,-95.2428,0109,7.22,9.58,12.0000,37.0000
1983-02-24 14:00:00 UTC,2445390.083333,28.7317,-95.2428,0109,8.23,11.33,14.0000,36.0000
1983-02-24 14:30:00 UTC,2445390.104167,28.7317,-95.2428,0109,8.60,12.29,15.0000,35.0000
1983-02-24 15:00:00 UTC,2445390.125000,28.7317,-95.2428,0109,9.18,13.11,16.0000,35.0000
1983-02-24 15:30:00 UTC,2445390.145833,28.7317,-95.2428,0109,9.51,14.09,17.0000,34.0000
1983-02-24 16:00:00 UTC,2445390.166667,28.7317,-95.2428,0109,9.80,15.10,18.0000,33.0000
1983-02-24 16:30:00 UTC,2445390.187500,28.7317,-95.2428,0109,10.89,16.77,20.0000,33.0000
1983-02-24 17:00:00 UTC,2445390.208333,28.7317,-95.2428,0109,10.89,16.77,20.0000,33.0000
1983-02-24 17:30:00 UTC,2445390.229167,28.7317,-95.2428,0109,11.74,17.41,21.0000,34.0000
1983-02-24 18:00:00 UTC,2445390.250000,28.7317,-95.2428,0109,12.93,17.80,22.0000,36.0000
1983-02-24 18:30:00 UTC,2445390.270833,28.7317,-95.2428,0109,13.54,17.34,22.0000,38.0000
1983-02-24 19:00:00 UTC,2445390.291667,28.7317,-95.2428,0109,14.78,17.62,23.0000,40.0000
1983-02-24 19:30:00 UTC,2445390.312500,28.7317,-95.2428,0109,15.98,16.54,23.0000,44.0000
1983-02-24 20:00:00 UTC,2445390.333333,28.7317,-95.2428,0109,16.54,15.98,23.0000,46.0000
1983-02-24 20:30:00 UTC,2445390.354167,28.7317,-95.2428,0109,16.09,15.00,22.0000,47.0000
1983-02-24 21:00:00 UTC,2445390.375000,28.7317,-95.2428,0109,16.85,14.14,22.0000,50.0000
1983-02-24 21:30:00 UTC,2445390.395833,28.7317,-95.2428,0109,17.41,11.74,21.0000,56.0000
1983-02-24 22:00:00 UTC,2445390.416667,28.7317,-95.2428,0109,18.37,10.18,21.0000,61.0000
1983-02-24 22:30:00 UTC,2445390.437500,28.7317,-95.2428,0109,17.49,7.42,19.0000,67.0000
1983-02-24 23:00:00 UTC,2445390.458333,28.7317,-95.2428,0109,17.85,6.50,19.0000,70.0000
1983-02-24 23:30:00 UTC,2445390.479167,28.7317,-95.2428,0109,17.74,6.81,19.0000,69.0000
1983-02-25 00:00:00 UTC,2445390.500000,28.7317,-95.2428,0109,17.36,7.73,19.0000,66.0000
1983-02-25 00:30:00 UTC,2445390.520833,28.7317,-95.2428,0109,16.78,8.92,19.0000,62.0000
1983-02-25 01:00:00 UTC,2445390.541667,28.7317,-95.2428,0109,16.58,11.18,20.0000,56.0000
1983-02-25 01:30:00 UTC,2445390.562500,28.7317,-95.2428,0109,16.32,13.22,21.0000,51.0000
1983-02-25 02:00:00 UTC,2445390.583333,28.7317,-95.2428,0109,16.35,14.72,22.0000,48.0000
1983-02-25 02:30:00 UTC,2445390.604167,28.7317,-95.2428,0109,16.54,15.98,23.0000,46.0000
1983-02-25 03:00:00 UTC,2445390.625000,28.7317,-95.2428,0109,17.98,17.37,25.0000,46.0000
1983-02-25 03:30:00 UTC,2445390.645833,28.7317,-95.2428,0109,18.28,17.05,25.0000,47.0000
1983-02-25 04:00:00 UTC,2445390.666667,28.7317,-95.2428,0109,18.70,18.06,26.0000,46.0000
1983-02-25 04:30:00 UTC,2445390.687500,28.7317,-95.2428,0109,18.06,18.70,26.0000,44.0000
1983-02-25 05:00:00 UTC,2445390.708333,28.7317,-95.2428,0109,17.05,18.28,25.0000,43.0000
1983-02-25 05:30:00 UTC,2445390.729167,28.7317,-95.2428,0109,17.37,17.98,25.0000,44.0000
1983-02-25 06:00:00 UTC,2445390.750000,28.7317,-95.2428,0109,17.26,16.67,24.0000,46.0000